Weather History for Augusta, ME

Change the Weather History Date:

Friday, August 30, 2013

  Actual Average Record
Temperature  
Mean Temperature 66 °F 66 °F  
Max Temperature 79 °F 76 °F 89 °F (2010)
Min Temperature 54 °F 56 °F 48 °F (2001)
Degree Days  
Heating Degree Days 0 2  
Month to date heating degree days 23  
Since 1 June heating degree days 133  
Since 1 July heating degree days 39  
Cooling Degree Days 2 3  
Month to date cooling degree days 124  
Year to date cooling degree days 354  
Since 1 June cooling degree days 345  
Growing Degree Days 16 (Base 50)    
Moisture  
Dew Point 60 °F    
Average Humidity 82    
Maximum Humidity 100    
Minimum Humidity 62    
Precipitation  
Precipitation 0.00 in 0.10 in 0.43 in (1997)
Month to date precipitation 3.21  
Year to date precipitation 26.08  
Sea Level Pressure  
Sea Level Pressure 29.89 in    
Wind  
Wind Speed 2 mph (SW)    
Max Wind Speed 8 mph    
Max Gust Speed -    
Visibility 10 miles    
Events      
T = Trace of Precipitation, MM = Missing Value Source: NWS Daily Summary

Daily Weather History Graph

Daily Weather History Graph

Search for Another Location

Airport:

Trip Planner

Search our weather history database for the weather conditions in past years. The results will help you decide how hot, cold, wet, or windy it might be!

Date:

Astronomy

Aug. 30, 2013 Rise Set
Actual Time 5:59 AM EDT 7:18 PM EDT
Civil Twilight 5:29 AM EDT 7:48 PM EDT
Nautical Twilight 4:53 AM EDT 8:24 PM EDT
Astronomical Twilight 4:15 AM EDT 9:02 PM EDT
Moon 12:28 AM EDT (8/30) 3:38 PM EDT (8/30)
Length of Visible Light 14h 18m
Length of Day
13h 18m
Waning Crescent, 29% of the Moon is Illuminated
Aug 30
Waning Crescent
Sep 5
New
Sep 12
First Quarter
Sep 19
Full
Sep 26
Last Quarter

Hourly Weather History & Observations

Time (EDT) Temp. Dew Point Humidity Pressure Visibility Wind Dir Wind Speed Gust Speed Precip Events Conditions
12:53 AM 55.9 °F 54.0 °F 93% 30.03 in 10.0 mi Calm Calm - N/A   Clear
1:53 AM 54.0 °F 54.0 °F 100% 30.01 in 10.0 mi Calm Calm - N/A   Overcast
2:53 AM 57.0 °F 55.0 °F 93% 29.99 in 10.0 mi Calm Calm - N/A   Overcast
3:53 AM 55.9 °F 55.0 °F 97% 29.98 in 10.0 mi Calm Calm - N/A   Mostly Cloudy
4:23 AM 57.2 °F 55.4 °F 94% 29.97 in 10.0 mi Calm Calm - N/A   Overcast
4:53 AM 57.0 °F 55.0 °F 93% 29.96 in 10.0 mi Calm Calm - N/A   Overcast
5:53 AM 57.0 °F 55.9 °F 96% 29.96 in 10.0 mi Calm Calm - N/A   Overcast
6:21 AM 57.2 °F 55.4 °F 94% 29.96 in 10.0 mi Calm Calm - N/A   Overcast
6:53 AM 57.0 °F 55.9 °F 96% 29.96 in 10.0 mi Calm Calm - N/A   Overcast
7:32 AM 60.8 °F 55.4 °F 82% 29.95 in 10.0 mi Calm Calm - N/A   Overcast
7:53 AM 60.1 °F 55.9 °F 86% 29.96 in 10.0 mi Calm Calm - N/A   Overcast
8:53 AM 62.1 °F 57.0 °F 84% 29.94 in 10.0 mi Variable 3.5 mph - N/A   Overcast
9:53 AM 66.0 °F 57.9 °F 75% 29.92 in 10.0 mi Variable 3.5 mph - N/A   Partly Cloudy
10:53 AM 70.0 °F 60.1 °F 71% 29.90 in 10.0 mi SW 4.6 mph - N/A   Clear
11:53 AM 73.0 °F 62.1 °F 68% 29.88 in 10.0 mi WNW 5.8 mph - N/A   Mostly Cloudy
12:03 PM 71.6 °F 62.6 °F 73% 29.87 in 10.0 mi Variable 5.8 mph - N/A   Scattered Clouds
12:53 PM 75.9 °F 63.0 °F 64% 29.85 in 10.0 mi West 8.1 mph - N/A   Mostly Cloudy
1:53 PM 75.9 °F 64.0 °F 67% 29.83 in 10.0 mi Variable 3.5 mph - N/A   Overcast
2:53 PM 78.1 °F 64.0 °F 62% 29.81 in 10.0 mi Variable 4.6 mph - N/A   Partly Cloudy
3:53 PM 78.1 °F 64.9 °F 64% 29.80 in 10.0 mi SW 5.8 mph - N/A   Clear
4:53 PM 79.0 °F 64.9 °F 62% 29.79 in 10.0 mi SW 6.9 mph - N/A   Partly Cloudy
5:53 PM 78.1 °F 66.0 °F 66% 29.78 in 10.0 mi SW 5.8 mph - N/A   Partly Cloudy
6:53 PM 73.0 °F 64.9 °F 76% 29.79 in 10.0 mi SSW 5.8 mph - N/A   Mostly Cloudy
7:53 PM 70.0 °F 64.0 °F 81% 29.79 in 10.0 mi SSW 5.8 mph - N/A   Mostly Cloudy
8:53 PM 68.0 °F 64.0 °F 87% 29.80 in 10.0 mi South 5.8 mph - N/A   Clear
9:53 PM 66.9 °F 63.0 °F 87% 29.79 in 10.0 mi SSW 4.6 mph - N/A   Mostly Cloudy
10:53 PM 66.0 °F 63.0 °F 90% 29.79 in 10.0 mi Calm Calm - N/A   Scattered Clouds
11:53 PM 66.0 °F 63.0 °F 90% 29.77 in 10.0 mi South 3.5 mph - N/A   Scattered Clouds